ATLAS 5 CENTAUR DEB, 43960

Orbit data source: Space-Track

ATLAS 5 CENTAUR DEB, 43960 is space debris in HEO originally from a launch on Wed, 17 Sep 2014 UTC launched from the Air Force Eastern Test Range (AFETR). Debris objects in space refer to the collection of defunct objects orbiting the Earth. Examples of debris include non-operational satellites, rocket bodies, and fragments generated from explosions, collisions, or faulty payload assembly.

Loading next visibility...
Identifier
43960, 2014-055P
Orbit
HEO
Country
Flag of USUS
Related business
Flag of USUnited Launch Alliance/Lockheed Martin (US)
Manufacturer
Unknown
Mission
Spacecraft
Bus & Motor
Unknown
Mass
Unknown
Launch date (UTC)
2014-09-17 (11 years ago)
Launch vehicle
Unknown
Launch site
Air Force Eastern Test Range (AFETR)
Object type
Payload
Rocket body
Debris
Shape & HBR
Unknown shape, 1.1 m
Radar Cross Section
Small (<0.1 m²)

Expand to show TLE details & history
Last TLE update: 4 days ago

TLE from 4 days ago
0 ATLAS 5 CENTAUR DEB
1 43960U 14055P   25347.19144528 -.00000024  00000-0  00000-0 0  9999
2 43960  19.7779 155.9647 5112216 141.0447 270.1399  1.81622875 48261
Epoch: 2025-12-13T04:35Z
TLE epoch observation values (Epoch: 2025-12-13T04:35:40.872Z)
Latitude
-0°
Longitude
4.9465°
Altitude
28,371.974 km
Speed
2.982 km/s
True Right ascension
10h 23m 57s
True Declination
0° 00' 00"
Sunlit
Object was in daylight at epoch
Visualization orbit readout
Latitude
Unknown
Longitude
Unknown
Altitude
Unknown
Speed
Unknown
Apparent Right ascension
Unknown
Apparent Declination
Unknown
Sunlit
N/A
Visualization observer readout
Local Sidereal Time
16:56:29
Azimuth
Unknown
Elevation
Unknown
Doppler factor
Unknown
Orbital elements
Apogee altitude
36,507.733 km
Perigee altitude
7,492.553 km
Semi-major axis
28,378.28 km
Eccentricity
0.51122
Inclination
19.7779°
RAAN
155.9647°
Arg. of periapsis
141.0447°
True anomaly
219.02052°
Mean anomaly
270.1399°
Eccentric anomaly
243.84769°
Mean motion
0.45401 °/min
Orbital period
792.94 mins
BSTAR
0
Loading maneuver chart data...
Computing Atmospheric mass density...

Documentation

Showing up to 5 results
|